Dewpoint
71 72 72 72 72 71 71 71 72 71 72 72 72 73 73 73 74 74 74 74 74 74 74 74 74 74 75 74 74 73 73 72 72 72 71 71 70 70 71 70 70 69
71 73 73 73 73 73 71 71 72 72 72 72 72 73 73 74 74 74 74 74 75 75 74 75 75 75 74 74 74 74 73 72 72 74 72 71 70 70 70 70 70 69
72 72 73 73 72 72 71 71 73 73 72 72 72 73 73 74 74 74 74 74 74 74 75 75 75 75 75 75 74 74 74 72 72 72 72 71 71 70 70 71 70 70
71 72 73 73 72 73 72 72 73 73 73 73 73 73 73 74 74 74 74 76 74 74 75 75 75 75 75 75 75 74 74 73 73 72 72 72 72 71 71 70 71 71
70 71 73 73 73 73 73 72 72 73 73 73 73 74 74 74 74 74 73 74 75 74 75 75 75 75 75 75 75 74 74 73 73 73 72 71 72 71 72 71 70 70
71 71 72 73 73 73 73 73 73 73 73 73 73 74 74 74 73 73 73 73 74 74 74 75 75 76 76 75 75 75 75 74 74 73 72 72 72 72 72 71 70 70
71 71 72 72 72 73 73 73 73 73 73 73 73 73 73 73 73 73 73 73 73 74 74 74 75 75 75 75 75 75 74 74 74 73 73 73 73 73 72 72 71 70
71 71 71 72 72 72 72 72 72 72 73 73 73 73 73 73 73 73 73 73 73 73 74 74 74 75 75 75 75 74 74 75 74 73 73 73 73 73 73 72 71 70
72 71 72 72 71 71 71 71 71 71 72 72 72 72 72 72 72 72 73 73 73 73 73 74 74 74 75 75 75 74 74 75 75 74 73 73 73 73 73 73 72 72
71 72 71 71 71 71 70 70 70 70 71 71 71 71 70 71 72 72 72 73 73 73 73 73 74 74 75 75 75 74 74 74 75 75 74 74 74 73 73 73 73 72
71 71 71 71 71 71 70 70 70 69 70 70 70 69 69 70 71 72 72 73 73 72 72 73 73 74 74 74 75 75 74 74 75 75 75 74 74 74 75 73 73 73
71 70 71 71 71 71 70 70 70 70 69 69 69 69 69 68 69 71 71 71 72 72 72 72 72 73 73 74 74 74 74 74 75 75 74 74 74 74 73 74 73 73
70 70 71 71 71 71 71 70 69 68 68 68 69 69 68 68 68 69 71 71 71 72 72 72 72 72 73 73 73 73 74 74 74 74 74 74 74 73 73 73 73 73
70 71 71 71 71 71 71 70 69 68 67 67 68 68 68 67 67 67 69 71 71 71 71 72 72 71 72 72 72 73 73 73 73 73 73 73 73 73 73 73 73 73
70 71 71 71 72 72 71 70 70 69 69 68 68 67 67 67 67 66 67 69 70 71 71 71 71 71 71 71 72 72 72 72 72 73 73 73 72 72 73 73 73 73
72 72 71 71 71 70 70 70 70 71 70 70 69 70 69 68 67 66 66 67 68 69 70 71 71 71 73 70 71 72 71 71 72 72 72 72 72 72 72 72 72 73
72 71 71 71 70 70 70 70 70 71 70 69 69 69 70 71 71 67 65 65 67 68 69 69 70 70 69 66 66 67 72 71 71 71 72 72 72 72 71 71 71 72
71 71 71 71 71 70 70 69 70 70 69 69 70 69 70 72 71 69 68 68 67 67 67 69 69 70 65 64 65 64 68 72 71 71 71 71 71 71 71 71 71 71
70 70 70 70 71 71 71 71 70 70 70 71 71 72 72 71 71 71 70 68 69 69 68 68 69 68 64 63 63 63 63 68 71 71 70 71 71 71 71 71 71 71
70 70 70 70 70 71 71 71 71 71 72 72 73 72 72 72 72 71 71 70 69 69 70 70 70 70 65 62 60 60 61 63 68 69 69 69 70 70 70 70 70 70
69 69 70 70 70 70 70 70 70 70 69 70 70 70 71 71 71 71 70 72 72 72 71 71 71 67 63 62 60 58 59 62 66 67 68 69 69 70 70 70 70 70
69 68 69 69 69 68 68 68 68 68 68 69 68 68 69 70 71 72 71 70 71 72 71 71 72 67 65 63 60 58 59 64 66 67 67 68 69 70 70 71 70 70
62 66 69 69 68 67 67 68 68 68 68 69 67 67 68 69 69 70 70 70 70 70 71 71 72 69 65 62 61 59 60 64 65 66 67 67 68 69 70 71 71 71
61 61 64 69 69 67 67 67 69 69 68 68 67 66 67 67 69 69 70 70 70 70 71 71 71 70 61 59 58 58 62 65 65 65 65 65 66 66 67 68 69 73
60 61 60 62 67 68 69 68 67 68 68 68 67 67 67 68 70 70 70 69 69 69 70 70 71 68 61 58 58 56 62 66 67 66 66 66 66 66 66 67 67 70
59 61 61 61 63 65 66 66 67 68 69 68 67 67 68 69 69 69 68 67 67 66 66 66 67 67 67 58 56 57 57 65 67 67 67 67 67 68 68 68 68 68